FW3988 Weather Reports


time (UTC)temp
C
wind
direction
speed
KPH
gust
KPH
rain 1hr
cm
rain 24hr
cm
rain mn
cm
humidity
%
barometer
mb
20260831191554 31 123 1.6 14.5 0.00 0.05 0.05 67 1013.5
20260831190150 31 140 1.6 12.9 0.00 0.05 0.05 67 1013.6
20260831184540 31 129 6.4 19.3 0.00 0.05 0.05 70 1013.8
20260831183001 31 121 4.8 12.9 0.00 0.05 0.05 68 1014.0
20260831181556 30 107 6.4 17.7 0.00 0.05 0.05 70 1014.2
20260831180026 31 151 3.2 16.1 0.00 0.05 0.05 68 1014.4
20260831174514 31 131 4.8 16.1 0.00 0.05 0.05 68 1014.5
20260831173009 30 182 0.0 16.1 0.00 0.05 0.05 72 1014.6
20260831171558 29 121 6.4 14.5 0.00 0.05 0.05 73 1014.5
20260831170150 29 104 6.4 16.1 0.00 0.05 0.05 75 1014.5
20260831164515 28 113 11.3 17.7 0.00 0.05 0.05 76 1014.3
20260831163006 28 92 8.0 14.5 0.00 0.05 0.05 79 1014.2
20260831161611 27 119 3.2 12.9 0.00 0.05 0.05 84 1014.1
20260831160023 27 109 3.2 8.0 0.00 0.05 0.05 86 1014.2
20260831154613 26 101 6.4 16.1 0.03 0.05 0.05 87 1014.1
20260831153055 25 65 8.0 16.1 0.05 0.05 0.05 90 1014.2
20260831151547 25 92 9.7 22.5 0.05 0.05 0.05 91 1014.4
20260831150143 25 112 11.3 25.7 0.05 0.05 0.05 91 1014.7
20260831144555 25 118 19.3 33.8 0.05 0.05 0.05 87 1014.8
20260831143055 27 125 19.3 30.6 0.00 0.00 0.00 83 1014.9
20260831141557 27 109 17.7 30.6 0.00 0.00 0.00 85 1014.3
20260831140032 27 93 11.3 25.7 0.00 0.00 0.00 86 1014.2
20260831134511 27 128 14.5 24.1 0.00 0.00 0.00 84 1013.5
20260831133105 27 92 9.7 16.1 0.00 0.00 0.00 80 1013.6
20260831131545 27 110 3.2 12.9 0.00 0.00 0.00 81 1013.4
20260831130134 27 86 3.2 11.3 0.00 0.00 0.00 81 1013.0
20260831124527 27 50 0.0 3.2 0.00 0.00 0.00 80 1012.6
20260831123023 27 49 0.0 3.2 0.00 0.00 0.00 79 1012.3
20260831121600 27 50 0.0 3.2 0.00 0.00 0.00 79 1012.3
20260831121504 27 50 0.0 3.2 0.00 0.00 0.00 79 1012.3
20260831120146 27 50 0.0 4.8 0.00 0.00 0.00 78 1012.3
20260831114526 27 56 1.6 4.8 0.00 2.11 0.00 77 1012.1
20260831113019 27 26 3.2 8.0 0.00 2.11 0.00 76 1011.7
20260831111516 27 18 0.0 4.8 0.00 2.11 0.00 75 1011.4
20260831110154 28 53 0.0 3.2 0.00 2.11 0.00 76 1011.3
20260831104533 28 53 0.0 1.6 0.00 2.11 0.00 74 1011.2
20260831103034 28 53 0.0 3.2 0.00 2.11 0.00 74 1011.1
20260831101559 27 53 0.0 3.2 0.00 2.11 0.00 75 1011.2
20260831100144 27 53 0.0 6.4 0.00 2.11 0.00 76 1011.2
20260831094531 27 33 1.6 6.4 0.00 2.11 0.00 76 1011.2
20260831093015 27 19 1.6 6.4 0.00 2.11 0.00 75 1011.2
20260831091613 28 19 3.2 8.0 0.00 2.11 0.00 74 1011.2
20260831090152 28 346 3.2 6.4 0.00 2.11 0.00 74 1011.3
20260831084530 28 23 1.6 6.4 0.00 2.11 0.00 75 1011.3
20260831083023 28 24 3.2 6.4 0.00 2.11 0.00 74 1011.5
20260831081606 28 24 0.0 1.6 0.00 2.11 0.00 75 1011.6
20260831080140 28 23 1.6 4.8 0.00 2.11 0.00 75 1011.7
20260831074540 28 11 0.0 6.4 0.00 2.11 0.00 74 1011.7
20260831073030 29 360 3.2 8.0 0.00 2.11 0.00 73 1012.0
20260831071603 29 18 0.0 3.2 0.00 2.11 0.00 72 1012.0
20260831070149 29 17 1.6 4.8 0.00 2.11 0.00 72 1012.1
20260831064542 29 15 1.6 3.2 0.00 2.11 2.11 72 1012.0
20260831061601 29 13 0.0 4.8 0.00 2.11 2.11 72 1011.9
20260831060144 29 11 0.0 3.2 0.00 2.11 2.11 72 1011.9
20260831054528 29 12 1.6 6.4 0.00 2.11 2.11 72 1011.9
20260831053014 29 13 4.8 12.9 0.00 2.11 2.11 73 1011.8
20260831051555 30 41 4.8 9.7 0.00 2.11 2.11 72 1011.8
20260831050144 30 5 4.8 9.7 0.00 2.11 2.11 73 1011.9
20260831044531 31 309 3.2 8.0 0.00 2.11 2.11 75 1012.1
20260831043020 31 302 4.8 12.9 0.00 2.11 2.11 75 1012.2
20260831041513 31 291 4.8 11.3 0.00 2.11 2.11 74 1012.0
20260831040156 31 320 3.2 11.3 0.00 2.11 2.11 76 1011.8
20260831034526 31 287 6.4 14.5 0.00 2.11 2.11 77 1011.6
20260831033011 31 292 6.4 11.3 0.00 2.11 2.11 77 1011.2
20260831031605 31 302 6.4 9.7 0.00 2.11 2.11 76 1011.1
20260831030143 31 331 4.8 14.5 0.00 2.11 2.11 77 1011.1
20260831024526 31 267 4.8 11.3 0.00 2.13 2.11 76 1010.7
20260831023020 31 300 4.8 11.3 0.00 2.13 2.11 77 1010.6
20260831021502 31 298 3.2 11.3 0.00 2.13 2.11 77 1010.3
20260831020037 31 288 1.6 12.9 0.00 2.13 2.11 77 1010.1
20260831014513 31 297 3.2 12.9 0.00 2.34 2.11 76 1009.9
20260831013057 31 277 4.8 12.9 0.00 2.34 2.11 75 1009.7
20260831011554 31 287 3.2 14.5 0.00 2.34 2.11 75 1009.7
20260831010031 31 295 8.0 14.5 0.00 2.34 2.11 75 1009.7
20260831004556 31 279 6.4 16.1 0.00 2.39 2.11 75 1009.3
20260831003050 32 259 9.7 16.1 0.00 2.39 2.11 72 1009.4
20260831001538 32 255 4.8 12.9 0.00 2.39 2.11 72 1009.3
20260831000133 32 242 6.4 17.7 0.00 2.39 2.11 71 1009.0
20260830234519 32 251 6.4 16.1 0.00 2.41 2.11 72 1009.6
20260830233054 32 257 6.4 12.9 0.00 2.41 2.11 72 1009.7
20260830231536 32 236 6.4 11.3 0.00 2.41 2.11 73 1009.6
20260830230136 32 227 6.4 17.7 0.00 2.41 2.11 74 1009.2
20260830224528 32 233 8.0 19.3 0.00 2.41 2.11 72 1009.5
20260830223029 32 261 9.7 14.5 0.00 2.41 2.11 68 1009.7
20260830221532 32 262 4.8 14.5 0.00 2.41 2.11 70 1009.7
20260830220127 32 248 6.4 14.5 0.00 2.41 2.11 69 1009.7
20260830214513 32 235 8.0 16.1 0.00 2.41 2.11 71 1009.7
20260830213101 32 241 6.4 14.5 0.00 2.41 2.11 69 1009.8
20260830211547 32 217 4.8 14.5 0.00 2.41 2.11 68 1009.9
20260830210135 32 229 8.0 16.1 0.00 2.41 2.11 67 1009.9
20260830204504 32 257 9.7 19.3 0.00 2.41 2.11 69 1010.1
20260830203055 32 226 11.3 19.3 0.00 2.41 2.11 69 1010.2
20260830201552 33 225 8.0 19.3 0.00 2.41 2.11 67 1010.4
20260830200123 33 267 3.2 9.7 0.00 2.41 2.11 62 1010.5
20260830194506 33 243 3.2 8.0 0.00 2.41 2.11 63 1010.9
20260830193106 32 294 4.8 9.7 0.00 2.41 2.11 62 1011.2